Starlink 3665

operational
NORAD ID: 52098 Int'l Des: 2022-029 Owner: SPXS Country: US Constellation: starlink
LEOCIRCULAR

Über Starlink 3665

Beschreibung wird geladen...

Live-Position

3D-Globus wird geladen...

Nächste Überflüge

Höhenverlauf

Altitude vs Time

uPlot chart will show altitude changes over time

Zweizeiliger Elementsatz

1 52098U 22029L 25350.60455896 .00002347 00000-0 16555-3 0 9998
2 52098 53.2182 102.1036 0001158 91.8881 268.2244 15.08831709208112
Epoch: 16. Dez. 2025 • Age: 18 hours

Aktueller Status

Höhe 544.8 km
Geschwindigkeit 7.60 km/s
Subsatellitenpunkt 49.83°N, 3.69°E
Startdatum 19. März 2022
Alter 3.7 years
Typ internet

Technische Details

Klassifizierung Payload
Masse 297.00 kg
Trockenmasse 275.00 kg
Gesamtmasse 297.00 kg
Länge 0.20 m
Durchmesser 2.80 m
Spannweite 9.00 m
Form Box + pan
Hersteller SPXS
Bus-Typ Starlink
Phasenstatus In Orbit
Besitzer/Staat SPXS/US

Große Konstellationen

Loading constellations...